sat.trackr.live / text

‹ back to catalog

STARLINK-36509

NORAD 67408 · 2026-005E

PAYLOAD ACTIVE UNKNOWN

§ Identity

Operator
Country
US
Launch date
2026-01-12
Launch site
AFETR
Launch vehicle
Mass (kg)
RCS (m²)

Purposes: comms

External: N2YO · Heavens-Above · Gunter

§ Orbital elements

Epoch: 2026-09-19T22:08:24.773280Z

Period
94.27 min
Inclination
42.9969°
Eccentricity
0.0000264
Mean motion
15.27592680 rev/d
Perigee alt
482.8 km
Apogee alt
483.2 km
Semi-major
6,861.1 km
B*
6.2062e-4
RAAN
220.9081°
Arg perigee
342.2959°
Mean anomaly
17.7884°
Rev number
3,839

§ Raw data

STARLINK-365091 67408U 26005E   26262.92250895  .00016862  00000+0  62062-3 0  99972 67408  42.9969 220.9081 0000264 342.2959  17.7884 15.27592680 38397

JSON: /api/v1/satellites/67408 · /tle

For live sub-satellite position, see the globe view (requires WebGL).

§ Visibility from observer

Set your observer location to see the next 7 days of passes ≥ 10°. The values pass through the URL so the page stays shareable.

No JS? Fill the form by hand. The geolocation button needs JavaScript.